Regional Weather Roundup
Issued by NWS

Home | Current Version | Previous Version | Text Only | Print | Product List | Glossary On
Versions: 1 2 3 4 5 6 7 8 9 10 11 12 13 14 15 16 17 18 19 20 21 22 23 24 25 26 27
000
ASUS43 KDMX 251107
RWRIA

WEATHER ROUNDUP FOR IOWA
NATIONAL WEATHER SERVICE DES MOINES IA
600 AM CDT SAT OCT 25 2014

NOTE: "FAIR" INDICATES FEW OR NO CLOUDS BELOW 12,000 FEET WITH NO
SIGNIFICANT WEATHER AND/OR OBSTRUCTIONS TO VISIBILITY.

* - THESE STATIONS ARE NOT NWS STATIONS...THUS NOT UNDER NWS
QUALITY CONTROL.  THEY ALSO DO NOT REPORT WEATHER SUCH
AS PRECIPITATION OR FOG.

IAZ001>003-012>014-020>022-031>034-043>046-251200-
   NORTHWEST IOWA

CITY           SKY/WX    TMP DP  RH WIND       PRES   REMARKS
CARROLL *      CLEAR     46  43  87 NW3       30.05R
CHEROKEE *     CLEAR     43  43 100 CALM      30.07R
DENISON *      CLEAR     43  43 100 CALM      30.04R
LE MARS *      CLEAR     41  41 100 CALM      30.08R
ORANGE CITY *  CLEAR     46  39  76 CALM      30.07R
SHELDON *        N/A     43  39  87 N6        30.06R
SIOUX CITY     CLEAR     43  40  89 W3        30.08R
SPENCER        CLEAR     44  38  79 NW3       30.06R
STORM LAKE *   CLEAR     52  39  62 N9        30.07R
$$

IAZ055>058-069>071-079>083-090>094-251200-
   SOUTHWEST IOWA

CITY           SKY/WX    TMP DP  RH WIND       PRES   REMARKS
AUDUBON *      CLEAR     45  39  81 CALM      30.05S
CLARINDA *     FOG       46  46 100 CALM      30.06R VSB<1/4
COUNCIL BLFS * CLEAR     54  50  87 N10       30.04R
CRESTON *      CLEAR     50  48  93 CALM      30.03S
HARLAN  *      CLEAR     45  45 100 CALM      30.08R
LAMONI           N/A     51  49  92 NW6       30.03R
RED OAK *      CLEAR     45  45 100 CALM      30.04R FOG
SHENANDOAH *   FOG       46  46 100 CALM      30.06R VSB 0
$$

IAZ047>049-059>061-072>074-084-251200-
   CENTRAL IOWA

CITY           SKY/WX    TMP DP  RH WIND       PRES   REMARKS
AMES           CLEAR     49  43  80 N8        30.02R
ANKENY *       CLEAR     52  48  87 N8        30.01R
CHARITON *     CLEAR     52  50  93 W6        30.01S
DES MOINES     CLEAR     54  47  77 N9        30.02R
GRINNELL*      CLEAR     48  48 100 NW6       30.01R
KNOXVILLE *    CLEAR     48  48 100 NW8       29.99R FOG
MARSHALLTOWN   CLEAR     46  44  93 NW8       30.00R
PELLA *        CLEAR     50  50 100 NW7       30.01S
PERRY *          N/A     50  45  81 N5        30.03S
$$

IAZ004>006-015-016-023>025-035-036-251200-
   NORTH CENTRAL IOWA

CITY           SKY/WX    TMP DP  RH WIND       PRES   REMARKS
ALGONA *       CLEAR     52  41  66 NW7       30.04R
CLARION *      CLEAR     46  43  87 N6        30.03R
ESTHERVILLE    PTCLDY    47  38  71 NW7       30.05R
FORT DODGE *   CLEAR     50  39  66 N5        30.05R
MASON CITY     PTCLDY    47  41  80 NW10      30.03R
FOREST CITY *  CLEAR     52  41  66 NW7       30.02R
IOWA FALLS *     N/A     46  43  87 NW5       30.03R
$$

IAZ007>011-017>019-026>030-037>042-050>054-066-251200-
   NORTHEAST IOWA

CITY           SKY/WX    TMP DP  RH WIND       PRES   REMARKS
CEDAR RAPIDS   CLEAR     46  46 100 NW9       29.98R FOG
CHARLES CITY *   N/A     45  43  93 W6        30.00R
CLINTON *      CLOUDY    55  54  94 W5        29.97S VSB 1/4
DECORAH *      CLEAR     48  46  93 CALM      29.97R
DUBUQUE        CLEAR     52  51  97 NW9       29.95R
MONTICELLO *   FOG       50  50 100 W5        29.96R VSB 1
OELWEIN *      CLEAR     46  46 100 NW7       29.99R
WATERLOO       CLEAR     47  45  93 NW3       29.99R
$$

IAZ064-065-067-068-078-251200-
   EAST CENTRAL IOWA

CITY           SKY/WX    TMP DP  RH WIND       PRES   REMARKS
DAVENPORT      FOG       53  52  96 W6        29.96R VSB 1/4
IOWA CITY      FOG       48  48 100 SW3       29.98R VSB 1/4
MT. PLEASANT * FOG       50  50 100 CALM      29.98R VSB 3/4
MUSCATINE *    FOG       50  50 100 W3        29.97R VSB 1/2
QUAD CITIES    FOG       55  54  96 W5        29.96R VSB 1/2
$$

IAZ062-063-075>077-085>089-095>099-251200-
   SOUTHEAST IOWA

CITY           SKY/WX    TMP DP  RH WIND       PRES   REMARKS
BURLINGTON     FOG       54  54 100 NW5       29.97R VSB 1/4
FAIRFIELD *      N/A     48  46  93 W5        29.99R
FORT MADISON * FOG       54  54 100 CALM      29.99R VSB 0
KEOKUK *       FOG       54  54 100 SW6       29.99R VSB 0
OSKALOOSA *      N/A     48  46  93 NW6       29.99S FOG
CENTERVILLE *  CLEAR     48  48 100 NW6       30.02R
OTTUMWA        CLEAR     50  49  96 W7        29.98R
WASHINGTON *   CLEAR     48  48 100 W6        29.97S FOG
$$

ABBREVIATIONS USED IN REMARKS
   TC - TEMPERATURES IN CELSIUS
  WCI - WIND CHILL INDEX
   HX - HEAT INDEX
  VSB - VISIBILITY
$$




USA.gov is the U.S. government's official web portal to all federal, state and local government web resources and services.